Zurück zum Katalog

SL-8 R/B

AktivLEO
NORAD 9598·ROCKET BODY·🇷🇺 Russia

Gestartet Dec 7, 1976 von Plesetsk Cosmodrome

Loading…

Nächste Überflüge (nächste 24 Stunden)

TLE

AktuellSource: Space-Track

Epoche: Sep 14, 2026, 10:13 UTC

1 09598U 76118J   26257.42586646  .00000078  00000-0  82538-3 0  9991
2 09598  74.0121 251.0010 0136966 192.3553 321.7980 12.24177837224040

Verfolge SL-8 R/B in Echtzeit mit AllMySat

Download on the App Store